User: anonymous   Login
Location: New Plymouth
(39.0670°S, 174.0830°E)
Time: 13:17:48
(UTC+13:00)
Language:

Cosmos 1386 Rocket - Orbit

View from above orbital plane
View from above orbital plane
View from above satellite
View from above satellite

Ground track
Ground track

The orbit data is extracted from the following two-line orbital elements,

1 13354U 82069B   19292.86536128 -.00000023 +00000-0 -36394-4 0  9999
2 13354 082.9595 065.4010 0050773 249.9900 109.5787 13.78886378875317
Epoch (UTC): 19 October 2019 20:46:07
Eccentricity: 0.0050773
inclination: 82.9595°
perigee height: 930 km
apogee height: 1005 km
right ascension of ascending node: 65.4010°
argument of perigee: 249.9900°
revolutions per day: 13.78886378
mean anomaly at epoch: 109.5787°
orbit number at epoch: 87531

The dashed part of the orbit path shows where the satellite is in the earth's shadow,  

DLR